Total_Precipitation_Accumulation
0.15 0.22 0.50 0.61 0.70 0.71 0.70 0.66 0.64 0.63 0.62 0.64 0.63 0.61 0.58 0.57 0.63 0.58 0.55 0.52 0.56 0.64 0.75 0.80 0.77 0.68 0.56 0.52 0.50 0.44 0.40 0.38 0.37 0.34 0.30 0.32 0.36 0.37 0.31 0.33 0.39 0.44 0.55
0.14 0.22 0.48 0.60 0.73 0.73 0.73 0.70 0.63 0.62 0.65 0.71 0.74 0.72 0.66 0.62 0.63 0.60 0.57 0.58 0.60 0.65 0.79 0.82 0.74 0.61 0.43 0.33 0.30 0.29 0.28 0.24 0.21 0.14 0.09 0.13 0.20 0.25 0.26 0.27 0.32 0.42 0.48
0.14 0.22 0.45 0.65 0.76 0.77 0.76 0.73 0.68 0.64 0.69 0.80 0.87 0.84 0.75 0.66 0.64 0.64 0.60 0.62 0.67 0.74 0.77 0.72 0.63 0.52 0.38 0.30 0.23 0.21 0.20 0.16 0.12 0.07 0.07 0.11 0.16 0.24 0.24 0.26 0.34 0.44 0.48
0.19 0.26 0.43 0.73 0.81 0.81 0.80 0.79 0.75 0.72 0.72 0.80 0.90 0.85 0.77 0.74 0.74 0.68 0.65 0.68 0.71 0.73 0.68 0.62 0.52 0.42 0.33 0.26 0.22 0.20 0.19 0.15 0.10 0.08 0.12 0.15 0.18 0.31 0.32 0.35 0.40 0.44 0.49
0.30 0.36 0.55 0.81 0.92 0.87 0.85 0.82 0.82 0.82 0.82 0.84 0.86 0.85 0.82 0.77 0.78 0.76 0.70 0.68 0.68 0.69 0.64 0.55 0.45 0.35 0.29 0.24 0.20 0.21 0.19 0.14 0.08 0.08 0.14 0.19 0.27 0.45 0.46 0.44 0.45 0.44 0.43
0.39 0.55 0.76 0.96 1.03 1.00 0.93 0.88 0.91 0.96 1.01 0.99 0.95 0.91 0.88 0.82 0.84 0.83 0.73 0.63 0.61 0.60 0.60 0.53 0.43 0.36 0.30 0.25 0.22 0.21 0.21 0.14 0.08 0.09 0.12 0.18 0.28 0.51 0.53 0.47 0.49 0.49 0.49
0.47 0.68 0.94 1.15 1.20 1.15 1.07 1.03 1.03 1.10 1.14 1.14 1.09 1.04 0.95 0.91 0.91 0.84 0.70 0.61 0.62 0.61 0.61 0.57 0.46 0.39 0.34 0.29 0.28 0.25 0.18 0.11 0.08 0.11 0.15 0.20 0.32 0.54 0.54 0.51 0.55 0.59 0.59
0.73 0.94 1.18 1.38 1.36 1.23 1.13 1.07 1.06 1.16 1.20 1.16 1.08 1.08 1.06 1.00 0.97 0.89 0.75 0.67 0.67 0.70 0.72 0.65 0.55 0.46 0.39 0.34 0.29 0.24 0.15 0.09 0.09 0.11 0.16 0.20 0.35 0.55 0.56 0.51 0.57 0.64 0.68
1.24 1.39 1.47 1.51 1.45 1.40 1.23 1.09 1.05 1.09 1.16 1.17 1.13 1.08 1.08 1.08 1.09 0.98 0.86 0.82 0.77 0.78 0.78 0.72 0.63 0.55 0.48 0.41 0.30 0.21 0.14 0.10 0.08 0.08 0.10 0.17 0.35 0.61 0.70 0.66 0.68 0.73 0.71
1.70 1.82 1.84 1.79 1.67 1.54 1.39 1.16 1.05 1.07 1.11 1.13 1.12 1.00 0.91 0.97 1.05 0.96 0.83 0.84 0.82 0.82 0.76 0.68 0.65 0.64 0.58 0.50 0.33 0.20 0.15 0.13 0.09 0.09 0.11 0.21 0.45 0.74 0.86 0.83 0.85 0.81 0.75
2.07 2.13 2.21 2.17 1.99 1.84 1.59 1.26 1.14 1.16 1.17 1.11 1.07 0.94 0.93 0.98 0.99 0.89 0.78 0.73 0.71 0.74 0.71 0.68 0.67 0.65 0.59 0.52 0.38 0.23 0.18 0.15 0.11 0.11 0.15 0.31 0.58 0.78 0.86 0.85 0.88 0.77 0.67
2.25 2.31 2.36 2.40 2.34 2.22 1.95 1.64 1.48 1.34 1.28 1.14 1.00 0.99 0.93 0.96 1.03 0.94 0.89 0.79 0.70 0.68 0.67 0.71 0.72 0.68 0.58 0.50 0.42 0.28 0.22 0.20 0.20 0.17 0.21 0.35 0.56 0.77 0.86 0.83 0.82 0.75 0.63
2.44 2.52 2.55 2.63 2.57 2.42 2.15 1.84 1.64 1.54 1.46 1.34 1.16 1.09 1.02 1.04 1.04 1.07 1.05 0.99 0.85 0.73 0.73 0.71 0.69 0.57 0.52 0.48 0.47 0.32 0.25 0.23 0.24 0.22 0.25 0.34 0.54 0.83 0.97 0.92 0.81 0.75 0.68
2.59 2.56 2.63 2.72 2.69 2.54 2.28 2.06 1.77 1.66 1.59 1.53 1.39 1.30 1.27 1.19 1.12 1.05 0.98 0.97 0.98 0.83 0.83 0.79 0.65 0.54 0.49 0.45 0.46 0.42 0.35 0.31 0.28 0.28 0.28 0.33 0.49 0.75 0.91 0.91 0.86 0.82 0.78
2.54 2.62 2.73 2.71 2.66 2.65 2.53 2.25 1.95 1.79 1.67 1.59 1.63 1.51 1.42 1.34 1.26 1.25 1.14 1.04 0.96 0.96 0.96 0.93 0.81 0.70 0.64 0.56 0.51 0.49 0.44 0.38 0.34 0.34 0.33 0.30 0.35 0.52 0.72 0.87 0.97 0.99 0.94
2.26 2.52 2.70 2.73 2.67 2.62 2.63 2.51 2.18 1.84 1.78 1.75 1.69 1.68 1.62 1.52 1.43 1.36 1.28 1.24 1.12 1.05 1.04 1.03 0.94 0.93 0.89 0.80 0.68 0.58 0.52 0.45 0.40 0.36 0.35 0.34 0.35 0.40 0.55 0.76 0.93 1.05 1.14
2.04 2.29 2.53 2.75 2.78 2.65 2.59 2.65 2.56 2.22 1.94 1.76 1.73 1.74 1.74 1.65 1.56 1.47 1.42 1.30 1.16 1.11 1.13 1.17 1.16 1.14 1.07 0.97 0.84 0.77 0.69 0.62 0.54 0.46 0.42 0.39 0.39 0.41 0.48 0.66 0.83 0.99 1.18
1.90 2.11 2.31 2.45 2.67 2.68 2.59 2.57 2.61 2.46 2.23 1.99 1.79 1.75 1.72 1.66 1.65 1.64 1.58 1.52 1.35 1.27 1.26 1.21 1.21 1.20 1.11 1.04 0.96 0.91 0.84 0.78 0.71 0.67 0.63 0.57 0.52 0.44 0.47 0.60 0.74 0.91 1.08
1.78 2.02 2.31 2.28 2.40 2.65 2.84 2.75 2.59 2.49 2.31 2.14 1.92 1.72 1.66 1.73 1.75 1.70 1.58 1.57 1.60 1.47 1.35 1.31 1.25 1.22 1.16 1.11 1.08 1.03 0.97 0.93 0.85 0.81 0.80 0.76 0.71 0.65 0.57 0.61 0.66 0.73 0.91
1.78 1.96 2.24 2.28 2.38 2.60 2.87 2.91 2.81 2.64 2.40 2.27 2.03 1.76 1.65 1.65 1.77 1.71 1.59 1.60 1.66 1.61 1.46 1.37 1.29 1.27 1.23 1.25 1.23 1.15 1.08 1.03 1.00 0.93 0.85 0.83 0.82 0.78 0.72 0.65 0.62 0.65 0.77
1.88 1.94 2.11 2.27 2.38 2.48 2.60 2.58 2.49 2.48 2.45 2.38 2.20 2.01 1.86 1.78 1.81 1.82 1.71 1.69 1.71 1.67 1.58 1.56 1.55 1.47 1.38 1.38 1.34 1.15 1.07 1.07 1.02 0.96 0.89 0.78 0.73 0.75 0.76 0.74 0.66 0.61 0.66
1.79 1.87 2.06 2.24 2.31 2.31 2.43 2.59 2.51 2.55 2.61 2.63 2.55 2.33 2.14 2.03 1.96 1.91 1.90 1.90 1.83 1.76 1.71 1.66 1.65 1.61 1.52 1.52 1.51 1.43 1.22 1.15 1.05 0.92 0.87 0.77 0.73 0.71 0.72 0.78 0.79 0.69 0.61
1.66 1.88 2.02 2.13 2.26 2.31 2.53 2.94 2.89 2.78 2.72 2.72 2.71 2.59 2.41 2.27 2.18 2.03 1.96 2.02 2.00 1.88 1.79 1.72 1.67 1.63 1.66 1.64 1.58 1.65 1.41 1.14 1.03 0.97 0.88 0.78 0.75 0.76 0.75 0.76 0.81 0.79 0.69
1.46 1.73 2.02 2.16 2.31 2.51 2.73 2.96 2.98 2.73 2.56 2.54 2.56 2.60 2.58 2.37 2.29 2.23 2.16 2.12 2.12 2.07 1.92 1.85 1.79 1.72 1.73 1.72 1.65 1.49 1.40 1.21 1.12 1.00 0.90 0.84 0.79 0.75 0.74 0.74 0.77 0.81 0.82
1.32 1.50 1.76 2.05 2.19 2.46 2.68 2.81 2.98 2.76 2.48 2.52 2.53 2.50 2.54 2.45 2.28 2.25 2.19 2.10 2.03 1.99 2.00 1.99 1.88 1.82 1.73 1.62 1.55 1.45 1.38 1.22 1.07 1.04 0.91 0.79 0.79 0.76 0.74 0.74 0.78 0.82 0.86
1.16 1.29 1.45 1.68 1.83 1.99 2.22 2.46 2.67 2.70 2.61 2.53 2.39 2.36 2.38 2.34 2.28 2.24 2.24 2.13 2.01 1.93 1.88 1.89 1.90 1.84 1.79 1.68 1.56 1.48 1.42 1.34 1.19 1.16 1.10 0.90 0.84 0.79 0.78 0.79 0.78 0.79 0.81